AVA9511 SKCC-SKRG

Flight info

Callsign AVA9511
Flight time 0h 51m
Altitude 24000
Route TORAT1K TORAT G431 EJA UW26 DIPRA DIPRA3B
Aircraft A320/M-SDE3FGHIRWY/LB1

Departure

Time 2026-04-23 21:26
Airport Camilo Daza International Airport (SKCC)

Arrival

Time 2026-04-23 22:17
Airport Jose Maria Córdova International Airport (SKRG)
Time Latitude Longitude Altitude Speed Heading
2026-04-23 21:09 7.92937 -72.50908 1032 ft 0 kts 26°
2026-04-23 21:19 7.92927 -72.50912 1032 ft 4 kts 13°
2026-04-23 21:19 7.92904 -72.50909 1032 ft 4 kts 324°
2026-04-23 21:20 7.92882 -72.50895 1032 ft 3 kts 342°
2026-04-23 21:20 7.92874 -72.50892 1032 ft 2 kts 346°
2026-04-23 21:23 7.92876 -72.50893 1032 ft 3 kts 346°
2026-04-23 21:23 7.92900 -72.50911 1032 ft 10 kts 308°
2026-04-23 21:23 7.92883 -72.50959 1032 ft 14 kts 213°
2026-04-23 21:23 7.92807 -72.51002 1032 ft 18 kts 221°
2026-04-23 21:24 7.92729 -72.51136 1032 ft 23 kts 236°
2026-04-23 21:24 7.92558 -72.51218 1035 ft 33 kts 196°
2026-04-23 21:24 7.92312 -72.51292 1050 ft 40 kts 196°
2026-04-23 21:24 7.92025 -72.51385 1055 ft 41 kts 198°
2026-04-23 21:25 7.91829 -72.51422 1057 ft 20 kts 185°
2026-04-23 21:25 7.91832 -72.51447 1057 ft 7 kts 15°
2026-04-23 21:25 7.91850 -72.51441 1057 ft 8 kts 17°
2026-04-23 21:25 7.92132 -72.51357 1055 ft 81 kts 17°
2026-04-23 21:26 7.92894 -72.51118 1034 ft 144 kts 18°
2026-04-23 21:26 7.93986 -72.50766 1232 ft 171 kts 17°
2026-04-23 21:26 7.95091 -72.50427 2036 ft 164 kts 16°
2026-04-23 21:26 7.96201 -72.50256 2736 ft 163 kts 351°
2026-04-23 21:27 7.97329 -72.50525 3146 ft 175 kts 351°
2026-04-23 21:27 7.98608 -72.50687 3357 ft 195 kts 355°
2026-04-23 21:27 8.00042 -72.50810 3592 ft 219 kts 355°
2026-04-23 21:27 8.01597 -72.50936 4232 ft 226 kts 355°
2026-04-23 21:28 8.03172 -72.51062 5010 ft 228 kts 355°
2026-04-23 21:28 8.04763 -72.51194 5762 ft 231 kts 355°
2026-04-23 21:28 8.06377 -72.51333 6503 ft 234 kts 355°
2026-04-23 21:28 8.08014 -72.51477 7196 ft 238 kts 355°
2026-04-23 21:29 8.09671 -72.51625 7925 ft 241 kts 354°
2026-04-23 21:29 8.11350 -72.51778 8682 ft 244 kts 354°
2026-04-23 21:29 8.13050 -72.51934 9454 ft 247 kts 353°
2026-04-23 21:29 8.14769 -72.52091 10084 ft 249 kts 354°
2026-04-23 21:30 8.16504 -72.52248 10499 ft 252 kts 355°
2026-04-23 21:30 8.18246 -72.52073 10880 ft 255 kts 20°
2026-04-23 21:30 8.19740 -72.51112 11269 ft 258 kts 47°
2026-04-23 21:30 8.20644 -72.49552 11656 ft 261 kts 75°
2026-04-23 21:31 8.20743 -72.47730 12032 ft 263 kts 103°
2026-04-23 21:31 8.19984 -72.46068 12532 ft 264 kts 131°
2026-04-23 21:31 8.18545 -72.44932 13176 ft 266 kts 159°
2026-04-23 21:31 8.16743 -72.44597 13810 ft 266 kts 186°
2026-04-23 21:32 8.14954 -72.45074 14373 ft 268 kts 201°
2026-04-23 21:32 8.13161 -72.45661 14827 ft 279 kts 198°
2026-04-23 21:32 8.11227 -72.46243 14952 ft 301 kts 197°
2026-04-23 21:32 8.09135 -72.46848 15085 ft 324 kts 196°
2026-04-23 21:33 8.06893 -72.47484 15207 ft 345 kts 196°
2026-04-23 21:33 8.04516 -72.48156 15373 ft 363 kts 196°
2026-04-23 21:33 8.02056 -72.48855 15812 ft 370 kts 196°
2026-04-23 21:33 7.99561 -72.49566 16359 ft 374 kts 196°
2026-04-23 21:34 7.97045 -72.50293 16933 ft 378 kts 198°
2026-04-23 21:34 7.94627 -72.51338 17473 ft 380 kts 211°
2026-04-23 21:34 7.92503 -72.52934 18015 ft 383 kts 224°
2026-04-23 21:34 7.90790 -72.54997 18525 ft 385 kts 236°
2026-04-23 21:35 7.89255 -72.57216 19013 ft 388 kts 235°
2026-04-23 21:35 7.87701 -72.59452 19515 ft 391 kts 235°
2026-04-23 21:35 7.86130 -72.61701 20008 ft 393 kts 235°
2026-04-23 21:35 7.84552 -72.63961 20534 ft 395 kts 235°
2026-04-23 21:36 7.81366 -72.68532 21535 ft 401 kts 235°
2026-04-23 21:36 7.79757 -72.70838 22052 ft 403 kts 235°
2026-04-23 21:36 7.78140 -72.73162 22532 ft 407 kts 235°
2026-04-23 21:37 7.76509 -72.75503 23005 ft 409 kts 235°
2026-04-23 21:37 7.74867 -72.77854 23499 ft 411 kts 235°
2026-04-23 21:37 7.73215 -72.80222 23865 ft 414 kts 235°
2026-04-23 21:37 7.71557 -72.82600 23985 ft 414 kts 235°
2026-04-23 21:38 7.69920 -72.84944 24021 ft 405 kts 235°
2026-04-23 21:38 7.68302 -72.87259 24037 ft 403 kts 235°
2026-04-23 21:38 7.66695 -72.89562 24037 ft 402 kts 235°
2026-04-23 21:38 7.65088 -72.91865 24037 ft 402 kts 234°
2026-04-23 21:39 7.63477 -72.94169 24038 ft 402 kts 234°
2026-04-23 21:39 7.61864 -72.96471 24017 ft 402 kts 235°
2026-04-23 21:39 7.60251 -72.98775 24022 ft 402 kts 235°
2026-04-23 21:39 7.58638 -73.01083 24021 ft 403 kts 235°
2026-04-23 21:40 7.57025 -73.03391 24021 ft 403 kts 235°
2026-04-23 21:40 7.55411 -73.05698 24018 ft 403 kts 235°
2026-04-23 21:40 7.53797 -73.08004 24016 ft 403 kts 235°
2026-04-23 21:40 7.52183 -73.10310 23970 ft 402 kts 235°
2026-04-23 21:41 7.50567 -73.12614 23970 ft 403 kts 235°
2026-04-23 21:41 7.48951 -73.14919 23969 ft 403 kts 235°
2026-04-23 21:41 7.47336 -73.17224 23973 ft 403 kts 235°
2026-04-23 21:41 7.45720 -73.19528 23975 ft 403 kts 235°
2026-04-23 21:42 7.44104 -73.21833 23977 ft 403 kts 235°
2026-04-23 21:42 7.42490 -73.24132 23941 ft 403 kts 235°
2026-04-23 21:42 7.40873 -73.26435 23945 ft 403 kts 235°
2026-04-23 21:42 7.39257 -73.28739 23948 ft 403 kts 235°
2026-04-23 21:43 7.37641 -73.31044 23950 ft 403 kts 235°
2026-04-23 21:43 7.36026 -73.33350 23953 ft 403 kts 235°
2026-04-23 21:43 7.34412 -73.35655 23955 ft 403 kts 235°
2026-04-23 21:43 7.32797 -73.37959 23931 ft 403 kts 235°
2026-04-23 21:44 7.31181 -73.40262 23929 ft 402 kts 235°
2026-04-23 21:44 7.29563 -73.42563 23926 ft 402 kts 235°
2026-04-23 21:44 7.27945 -73.44864 23931 ft 403 kts 235°
2026-04-23 21:44 7.26325 -73.47164 23922 ft 403 kts 235°
2026-04-23 21:45 7.24706 -73.49465 23916 ft 403 kts 235°
2026-04-23 21:45 7.23090 -73.51768 23886 ft 402 kts 235°
2026-04-23 21:45 7.21476 -73.54070 23882 ft 402 kts 235°
2026-04-23 21:45 7.19860 -73.56370 23882 ft 402 kts 235°
2026-04-23 21:46 7.18248 -73.58665 23884 ft 402 kts 235°
2026-04-23 21:46 7.16632 -73.60965 23884 ft 402 kts 235°
2026-04-23 21:46 7.15036 -73.63231 23882 ft 402 kts 235°
2026-04-23 21:46 7.13420 -73.65529 23876 ft 402 kts 235°
2026-04-23 21:47 7.11804 -73.67826 23873 ft 402 kts 235°
2026-04-23 21:47 7.10190 -73.70122 23875 ft 402 kts 235°
2026-04-23 21:47 7.08581 -73.72413 23796 ft 398 kts 235°
2026-04-23 21:47 7.07003 -73.74662 23576 ft 389 kts 235°
2026-04-23 21:48 7.05448 -73.76873 23345 ft 385 kts 235°
2026-04-23 21:48 7.03902 -73.79067 23087 ft 383 kts 235°
2026-04-23 21:48 7.02437 -73.81298 22811 ft 381 kts 241°
2026-04-23 21:48 7.01145 -73.83620 22550 ft 380 kts 241°
2026-04-23 21:49 6.99856 -73.85927 22298 ft 378 kts 241°
2026-04-23 21:49 6.98568 -73.88229 22046 ft 377 kts 241°
2026-04-23 21:49 6.97284 -73.90522 21799 ft 375 kts 241°
2026-04-23 21:49 6.96005 -73.92807 21554 ft 374 kts 241°
2026-04-23 21:50 6.94734 -73.95085 21312 ft 373 kts 241°
2026-04-23 21:50 6.93465 -73.97355 21073 ft 371 kts 241°
2026-04-23 21:50 6.92199 -73.99615 20834 ft 370 kts 241°
2026-04-23 21:50 6.90939 -74.01865 20595 ft 368 kts 241°
2026-04-23 21:51 6.89686 -74.04104 20364 ft 366 kts 241°
2026-04-23 21:51 6.88437 -74.06334 20134 ft 365 kts 241°
2026-04-23 21:51 6.87193 -74.08557 19897 ft 363 kts 241°
2026-04-23 21:51 6.85956 -74.10767 19682 ft 362 kts 241°
2026-04-23 21:52 6.84723 -74.12973 19442 ft 361 kts 241°
2026-04-23 21:52 6.83495 -74.15173 19213 ft 360 kts 241°
2026-04-23 21:52 6.82270 -74.17361 18992 ft 358 kts 241°
2026-04-23 21:52 6.81048 -74.19540 18764 ft 357 kts 240°
2026-04-23 21:53 6.79829 -74.21711 18543 ft 357 kts 241°
2026-04-23 21:53 6.78611 -74.23879 18316 ft 355 kts 241°
2026-04-23 21:53 6.77402 -74.26037 18093 ft 354 kts 240°
2026-04-23 21:53 6.76198 -74.28190 17837 ft 353 kts 240°
2026-04-23 21:54 6.74996 -74.30341 17582 ft 351 kts 241°
2026-04-23 21:54 6.73802 -74.32479 17330 ft 349 kts 241°
2026-04-23 21:54 6.72613 -74.34603 17078 ft 348 kts 241°
2026-04-23 21:54 6.71424 -74.36721 16845 ft 347 kts 240°
2026-04-23 21:55 6.70238 -74.38830 16599 ft 345 kts 240°
2026-04-23 21:55 6.69057 -74.40926 16355 ft 343 kts 240°
2026-04-23 21:55 6.67882 -74.43014 16112 ft 342 kts 240°
2026-04-23 21:55 6.66710 -74.45100 15871 ft 343 kts 240°
2026-04-23 21:56 6.65541 -74.47183 15638 ft 341 kts 241°
2026-04-23 21:56 6.64383 -74.49250 15399 ft 339 kts 240°
2026-04-23 21:56 6.63227 -74.51314 15181 ft 338 kts 241°
2026-04-23 21:56 6.62073 -74.53378 14943 ft 338 kts 241°
2026-04-23 21:57 6.61069 -74.55509 14715 ft 336 kts 249°
2026-04-23 21:57 6.60291 -74.57719 14487 ft 335 kts 251°
2026-04-23 21:57 6.59519 -74.59926 14256 ft 333 kts 250°
2026-04-23 21:57 6.58759 -74.62093 14031 ft 333 kts 250°
2026-04-23 21:58 6.57994 -74.64281 13836 ft 331 kts 250°
2026-04-23 21:58 6.57231 -74.66457 13593 ft 329 kts 250°
2026-04-23 21:58 6.56473 -74.68623 13334 ft 328 kts 250°
2026-04-23 21:58 6.55718 -74.70777 13130 ft 327 kts 250°
2026-04-23 21:59 6.54962 -74.72932 13055 ft 326 kts 250°
2026-04-23 21:59 6.54209 -74.75082 13069 ft 326 kts 251°
2026-04-23 21:59 6.53456 -74.77232 13064 ft 326 kts 251°
2026-04-23 22:00 6.51951 -74.81542 13098 ft 327 kts 250°
2026-04-23 22:00 6.51195 -74.83694 13100 ft 326 kts 250°
2026-04-23 22:00 6.50441 -74.85842 13097 ft 325 kts 250°
2026-04-23 22:00 6.49687 -74.87986 13103 ft 326 kts 250°
2026-04-23 22:01 6.48930 -74.90133 13100 ft 326 kts 250°
2026-04-23 22:01 6.48173 -74.92288 13098 ft 327 kts 250°
2026-04-23 22:01 6.47418 -74.94441 13098 ft 326 kts 251°
2026-04-23 22:01 6.46664 -74.96586 13097 ft 325 kts 250°
2026-04-23 22:02 6.45907 -74.98734 13094 ft 326 kts 250°
2026-04-23 22:02 6.45146 -75.00888 13096 ft 327 kts 250°
2026-04-23 22:02 6.44388 -75.03037 13098 ft 327 kts 250°
2026-04-23 22:02 6.43631 -75.05192 13095 ft 326 kts 251°
2026-04-23 22:03 6.42881 -75.07340 13126 ft 325 kts 251°
2026-04-23 22:03 6.42130 -75.09482 13125 ft 325 kts 250°
2026-04-23 22:03 6.41348 -75.11607 13125 ft 325 kts 246°
2026-04-23 22:03 6.40238 -75.13578 13126 ft 324 kts 235°
2026-04-23 22:04 6.38756 -75.15286 13124 ft 325 kts 223°
2026-04-23 22:04 6.36952 -75.16659 13130 ft 327 kts 212°
2026-04-23 22:04 6.34897 -75.17642 13126 ft 328 kts 200°
2026-04-23 22:04 6.32698 -75.18275 13193 ft 329 kts 197°
2026-04-23 22:05 6.30492 -75.18873 13211 ft 328 kts 196°
2026-04-23 22:05 6.28287 -75.19473 13222 ft 328 kts 196°
2026-04-23 22:05 6.26080 -75.20074 13239 ft 329 kts 197°
2026-04-23 22:05 6.23874 -75.20675 13252 ft 328 kts 197°
2026-04-23 22:06 6.21674 -75.21274 13276 ft 327 kts 197°
2026-04-23 22:06 6.19475 -75.21872 13300 ft 327 kts 197°
2026-04-23 22:06 6.17274 -75.22468 13309 ft 328 kts 197°
2026-04-23 22:06 6.15073 -75.23065 13311 ft 327 kts 197°
2026-04-23 22:07 6.12878 -75.23664 13315 ft 327 kts 196°
2026-04-23 22:07 6.10689 -75.24264 13316 ft 327 kts 197°
2026-04-23 22:07 6.08495 -75.24864 13315 ft 327 kts 197°
2026-04-23 22:07 6.06298 -75.25465 13312 ft 327 kts 196°
2026-04-23 22:08 6.04841 -75.25862 13301 ft 327 kts 197°
2026-04-23 22:08 6.02644 -75.26459 13288 ft 327 kts 197°
2026-04-23 22:08 6.00445 -75.27058 13278 ft 327 kts 197°
2026-04-23 22:08 5.98248 -75.27655 13267 ft 327 kts 197°
2026-04-23 22:09 5.96064 -75.28249 13051 ft 322 kts 196°
2026-04-23 22:09 5.93931 -75.28829 12940 ft 310 kts 197°
2026-04-23 22:09 5.91910 -75.29375 12971 ft 295 kts 197°
2026-04-23 22:09 5.90018 -75.30012 12957 ft 279 kts 210°
2026-04-23 22:10 5.88578 -75.31213 12954 ft 264 kts 233°
2026-04-23 22:10 5.87754 -75.32826 12779 ft 259 kts 256°
2026-04-23 22:10 5.87612 -75.33622 12668 ft 258 kts 266°
2026-04-23 22:10 5.87590 -75.35417 12435 ft 257 kts 269°
2026-04-23 22:11 5.87586 -75.37204 12199 ft 254 kts 269°
2026-04-23 22:11 5.87578 -75.38933 12099 ft 242 kts 269°
2026-04-23 22:11 5.87718 -75.40573 11995 ft 232 kts 289°
2026-04-23 22:11 5.88690 -75.41811 11711 ft 230 kts 328°
2026-04-23 22:12 5.90224 -75.42175 11495 ft 228 kts 355°
2026-04-23 22:12 5.91796 -75.42175 11225 ft 224 kts 358°
2026-04-23 22:12 5.93336 -75.42165 10969 ft 218 kts 358°
2026-04-23 22:12 5.94836 -75.42171 10723 ft 214 kts 357°
2026-04-23 22:13 5.96308 -75.42180 10480 ft 211 kts 357°
2026-04-23 22:13 5.97761 -75.42190 10242 ft 208 kts 356°
2026-04-23 22:13 5.99194 -75.42199 10008 ft 203 kts 357°
2026-04-23 22:13 6.00602 -75.42209 9749 ft 199 kts 358°
2026-04-23 22:14 6.01921 -75.42216 9503 ft 182 kts 356°
2026-04-23 22:14 6.03121 -75.42223 9284 ft 170 kts 357°
2026-04-23 22:14 6.04285 -75.42232 9082 ft 165 kts 358°
2026-04-23 22:14 6.05425 -75.42240 8878 ft 163 kts 357°
2026-04-23 22:15 6.06554 -75.42245 8678 ft 162 kts 358°
2026-04-23 22:15 6.07679 -75.42247 8459 ft 161 kts 358°
2026-04-23 22:15 6.08795 -75.42258 8286 ft 160 kts 358°
2026-04-23 22:15 6.09908 -75.42265 8093 ft 160 kts 359°
2026-04-23 22:16 6.11014 -75.42276 7846 ft 158 kts 360°
2026-04-23 22:16 6.12104 -75.42285 7621 ft 156 kts
2026-04-23 22:16 6.13177 -75.42288 7386 ft 153 kts
2026-04-23 22:16 6.14241 -75.42293 7157 ft 151 kts
2026-04-23 22:17 6.15295 -75.42301 6994 ft 151 kts
2026-04-23 22:17 6.16216 -75.42306 6978 ft 107 kts 359°
2026-04-23 22:17 6.16805 -75.42312 6999 ft 51 kts 359°
2026-04-23 22:17 6.17011 -75.42358 7010 ft 25 kts 335°
2026-04-23 22:18 6.17154 -75.42440 7015 ft 23 kts 327°
2026-04-23 22:18 6.17185 -75.42554 7013 ft 18 kts 268°
2026-04-23 22:18 6.17150 -75.42623 7018 ft 8 kts 221°
2026-04-23 22:18 6.17138 -75.42658 7020 ft 4 kts 268°
2026-04-23 22:19 6.17140 -75.42682 7020 ft 2 kts 270°
2026-04-23 22:19 6.17140 -75.42687 7019 ft 0 kts 270°